Location: Miles
(41.4492°N, 81.6087°W)
Time: 13:41:37
(UTC+00:00)

Courier 1B - Pass Details

Date: 18 September 2024
Orbit: 962 x 1208 km, 28.3° (Epoch: 12 October)

Event Time Altitude Azimuth Distance (km) Brightness Sun altitude
Rises 23:18:30 0° 256° (WSW) 3,996 12.7 1.2°
Reaches altitude 10° 23:22:48 10° 234° (SW) 3,076 11.1 0.4°
Maximum altitude 23:26:37 15° 204° (SSW) 2,769 10.2 -0.3°
Drops below altitude 10° 23:30:30 10° 173° (S) 3,124 10.1 -1.0°
Sets 23:34:57 0° 151° (SSE) 4,098 10.4 -1.8°
